Simultaneous Nadir Overpasses (SNOs) Predictions

Prediction of SNOs between GOES-15 and TERRA Satellite Orbit:

Table of predicted SNOs for the next 14.0 days since TLE Epoch: 11/23/2013
Index Date Time (GOES-15) GOES-15 Lat,Lon TERRA Lat,Lon Distance(km) Time Diff (sec)
1 11/23/2013 19:33:46 -0.19,-135.42 -0.17,-135.65 25.82 80
2 11/25/2013 19:18:56 -0.20,-135.43 -0.81,-132.70 311.47 80
3 11/26/2013 07:43:00 0.17,-135.49 -0.32,-137.89 271.63 80
4 11/28/2013 07:28:09 0.18,-135.50 0.28,-134.93 64.85 80
5 11/30/2013 07:15:59 0.18,-135.50 0.96,-131.98 400.64 80
6 11/30/2013 19:39:53 -0.16,-135.44 0.18,-137.13 192.01 80
7 12/02/2013 19:25:03 -0.16,-135.43 -0.46,-134.18 142.87 80
8 12/03/2013 07:49:05 0.14,-135.48 -0.71,-139.35 440.51 80
9 12/04/2013 19:12:51
